Starlink 33844

operational
NORAD ID: 63768 Int'l Des: 2025-089 Owner: SPXS Country: US Constellation: starlink
LEOCIRCULAR

Über Starlink 33844

Beschreibung wird geladen...

Live-Position

3D-Globus wird geladen...

Nächste Überflüge

Höhenverlauf

Altitude vs Time

uPlot chart will show altitude changes over time

Zweizeiliger Elementsatz

1 63768U 25089T 25352.76190177 .00026669 00000-0 97502-3 0 9994
2 63768 42.9994 142.0150 0001512 275.1072 84.9607 15.27583958 36584
Epoch: 18. Dez. 2025 • Age: 26 hours

Aktueller Status

Höhe 483.0 km
Geschwindigkeit 7.63 km/s
Subsatellitenpunkt -0.92°S, 74.52°W
Startdatum 29. Apr. 2025
Alter 0.6 years
Typ internet

Technische Details

Klassifizierung Payload
Masse 575.00 kg
Trockenmasse 530.00 kg
Gesamtmasse 575.00 kg
Länge 0.30 m
Durchmesser 4.10 m
Spannweite 29.00 m
Form Box + pan
Hersteller SPXS
Bus-Typ Starlink V2MO
Phasenstatus In Orbit
Besitzer/Staat SPXS/US

Große Konstellationen

Loading constellations...